When you browse on this site, cookies collect data to enhance your experience and personalize the content and advertising you see.
Visit our Privacy Policy to learn more. By continuing to use the site, you agree to this use of cookies and data.
  • In Sweden
  • List of Countries
  • For 7 days
  • Water Temperature
  • Weather Map
  • Weather Widgets
  • user-avatar
    Login

    Hourly Weather Tuxtla Gutiérrez

    Today, 26 February, Wednesday

    Time Temperature Precipitation Wind Pressure Humidity
    00:00 +21°C° 0 mm 1 mps 709 mmHg 93%
    01:00 +19°C° 0 mm 0 mps 709 mmHg 93%
    02:00 +19°C° 0 mm 0 mps 709 mmHg 93%
    03:00 +18°C° 0 mm 0 mps 709 mmHg 93%
    04:00 +18°C° 0 mm 0 mps 709 mmHg 92%
    05:00 +18°C° 0 mm 0 mps 709 mmHg 91%
    06:00 +18°C° 0 mm 0 mps 709 mmHg 90%
    07:00 +20°C° 0 mm 0 mps 710 mmHg 79%
    08:00 +25°C° 0 mm 1 mps 711 mmHg 69%
    09:00 +28°C° 0 mm 1 mps 712 mmHg 58%
    10:00 +29°C° 0 mm 1 mps 712 mmHg 53%
    11:00 +31°C° 0 mm 2 mps 713 mmHg 47%
    12:00 +34°C° 0 mm 3 mps 713 mmHg 42%
    13:00 +33°C° 0.1 mm 4 mps 712 mmHg 46%
    14:00 +32°C° 0.1 mm 5 mps 712 mmHg 51%
    15:00 +30°C° 0.1 mm 6 mps 711 mmHg 56%
    16:00 +28°C° 0.2 mm 6 mps 711 mmHg 66%
    17:00 +24°C° 0.2 mm 6 mps 711 mmHg 75%
    18:00 +22°C° 0.2 mm 6 mps 712 mmHg 84%
    19:00 +21°C° 0.4 mm 6 mps 712 mmHg 84%
    20:00 +20°C° 0.4 mm 7 mps 713 mmHg 84%
    21:00 +20°C° 0.4 mm 7 mps 714 mmHg 84%
    22:00 +18°C° 0.3 mm 7 mps 714 mmHg 84%
    23:00 +17°C° 0.3 mm 6 mps 715 mmHg 85%

    Tomorrow, 27 February, Thursday

    Time Temperature Precipitation Wind Pressure Humidity
    00:00 +17°C° 0.3 mm 6 mps 715 mmHg 86%
    01:00 +16°C° 0.1 mm 5 mps 715 mmHg 86%
    02:00 +16°C° 0.1 mm 5 mps 715 mmHg 86%
    03:00 +17°C° 0.1 mm 4 mps 715 mmHg 87%
    04:00 +17°C° 0 mm 4 mps 715 mmHg 87%
    05:00 +15°C° 0 mm 4 mps 715 mmHg 87%
    06:00 +15°C° 0 mm 4 mps 715 mmHg 88%
    07:00 +17°C° 0 mm 4 mps 716 mmHg 84%
    08:00 +18°C° 0 mm 4 mps 716 mmHg 79%
    09:00 +19°C° 0 mm 3 mps 717 mmHg 75%
    10:00 +20°C° 0 mm 4 mps 717 mmHg 70%
    11:00 +21°C° 0 mm 4 mps 717 mmHg 66%
    12:00 +22°C° 0 mm 4 mps 716 mmHg 62%
    13:00 +22°C° 0 mm 4 mps 716 mmHg 62%
    14:00 +22°C° 0 mm 4 mps 715 mmHg 62%
    15:00 +22°C° 0 mm 5 mps 714 mmHg 63%
    16:00 +21°C° 0 mm 4 mps 714 mmHg 68%
    17:00 +20°C° 0 mm 4 mps 714 mmHg 73%
    18:00 +18°C° 0 mm 4 mps 714 mmHg 79%
    19:00 +18°C° 0 mm 3 mps 715 mmHg 82%
    20:00 +17°C° 0 mm 3 mps 715 mmHg 86%
    21:00 +16°C° 0 mm 2 mps 715 mmHg 90%
    22:00 +16°C° 0 mm 2 mps 715 mmHg 90%
    23:00 +16°C° 0 mm 2 mps 715 mmHg 91%

    Day after tomorrow, 28 February, Friday

    Time Temperature Precipitation Wind Pressure Humidity
    00:00 +16°C° 0 mm 2 mps 715 mmHg 91%
    01:00 +16°C° 0 mm 2 mps 715 mmHg 92%
    02:00 +16°C° 0 mm 2 mps 714 mmHg 93%
    03:00 +15°C° 0 mm 1 mps 714 mmHg 94%
    04:00 +15°C° 0 mm 1 mps 714 mmHg 93%
    05:00 +15°C° 0 mm 1 mps 714 mmHg 93%
    06:00 +15°C° 0 mm 1 mps 714 mmHg 93%
    07:00 +18°C° 0 mm 1 mps 715 mmHg 86%
    08:00 +20°C° 0 mm 1 mps 716 mmHg 78%
    09:00 +22°C° 0 mm 1 mps 716 mmHg 70%
    10:00 +23°C° 0 mm 2 mps 716 mmHg 66%
    11:00 +24°C° 0 mm 3 mps 716 mmHg 61%
    12:00 +26°C° 0 mm 3 mps 716 mmHg 56%
    13:00 +26°C° 0 mm 4 mps 715 mmHg 56%
    14:00 +26°C° 0 mm 4 mps 715 mmHg 56%
    15:00 +27°C° 0 mm 4 mps 714 mmHg 55%
    16:00 +25°C° 0 mm 4 mps 714 mmHg 62%
    17:00 +23°C° 0 mm 4 mps 714 mmHg 68%
    18:00 +21°C° 0 mm 4 mps 715 mmHg 74%
    19:00 +20°C° 0 mm 3 mps 715 mmHg 79%
    20:00 +19°C° 0 mm 3 mps 716 mmHg 84%
    21:00 +18°C° 0 mm 2 mps 716 mmHg 90%
    22:00 +17°C° 0 mm 2 mps 716 mmHg 90%
    23:00 +17°C° 0 mm 2 mps 716 mmHg 91%

    29 February, Saturday

    Time Temperature Precipitation Wind Pressure Humidity
    00:00 +17°C° 0 mm 2 mps 716 mmHg 92%
    01:00 +17°C° 0 mm 2 mps 716 mmHg 92%
    02:00 +17°C° 0 mm 2 mps 715 mmHg 92%
    03:00 +16°C° 0 mm 2 mps 715 mmHg 92%
    04:00 +16°C° 0 mm 2 mps 715 mmHg 92%
    05:00 +16°C° 0 mm 1 mps 715 mmHg 93%
    06:00 +15°C° 0 mm 1 mps 715 mmHg 93%
    07:00 +19°C° 0 mm 1 mps 716 mmHg 83%
    08:00 +21°C° 0 mm 1 mps 717 mmHg 72%
    09:00 +23°C° 0 mm 1 mps 717 mmHg 62%
    10:00 +25°C° 0 mm 2 mps 717 mmHg 55%
    11:00 +27°C° 0 mm 2 mps 717 mmHg 48%
    12:00 +29°C° 0 mm 2 mps 716 mmHg 41%
    13:00 +29°C° 0 mm 3 mps 715 mmHg 42%
    14:00 +29°C° 0 mm 3 mps 714 mmHg 42%
    15:00 +28°C° 0 mm 4 mps 714 mmHg 43%
    16:00 +26°C° 0 mm 4 mps 714 mmHg 52%
    17:00 +23°C° 0 mm 4 mps 713 mmHg 61%
    18:00 +21°C° 0 mm 4 mps 713 mmHg 70%
    19:00 +20°C° 0 mm 3 mps 714 mmHg 77%
    20:00 +18°C° 0 mm 3 mps 714 mmHg 84%
    21:00 +17°C° 0 mm 2 mps 714 mmHg 91%
    22:00 +16°C° 0 mm 2 mps 714 mmHg 92%
    23:00 +16°C° 0 mm 1 mps 714 mmHg 92%

    1 March, Sunday

    Time Temperature Precipitation Wind Pressure Humidity
    00:00 +16°C° 0 mm 1 mps 714 mmHg 93%
    01:00 +15°C° 0 mm 1 mps 713 mmHg 93%
    02:00 +15°C° 0 mm 1 mps 713 mmHg 92%
    03:00 +15°C° 0 mm 1 mps 712 mmHg 92%
    04:00 +15°C° 0 mm 1 mps 712 mmHg 90%
    05:00 +14°C° 0 mm 1 mps 712 mmHg 88%
    06:00 +14°C° 0 mm 1 mps 712 mmHg 86%
    07:00 +18°C° 0 mm 1 mps 713 mmHg 75%
    08:00 +19°C° 0 mm 0 mps 713 mmHg 64%
    09:00 +22°C° 0 mm 0 mps 714 mmHg 53%
    10:00 +25°C° 0 mm 0 mps 714 mmHg 45%
    11:00 +30°C° 0 mm 1 mps 714 mmHg 36%
    12:00 +33°C° 0 mm 1 mps 713 mmHg 28%
    13:00 +34°C° 0 mm 1 mps 713 mmHg 28%
    14:00 +34°C° 0 mm 1 mps 712 mmHg 28%
    15:00 +35°C° 0 mm 2 mps 711 mmHg 28%
    16:00 +31°C° 0 mm 2 mps 711 mmHg 40%
    17:00 +28°C° 0 mm 2 mps 710 mmHg 51%
    18:00 +26°C° 0 mm 2 mps 710 mmHg 63%
    19:00 +24°C° 0 mm 2 mps 710 mmHg 69%
    20:00 +21°C° 0 mm 2 mps 710 mmHg 76%
    21:00 +21°C° 0 mm 1 mps 710 mmHg 82%
    22:00 +20°C° 0 mm 1 mps 710 mmHg 80%
    23:00 +20°C° 0 mm 1 mps 710 mmHg 77%

    2 March, Monday

    Time Temperature Precipitation Wind Pressure Humidity
    00:00 +18°C° 0 mm 0 mps 710 mmHg 74%
    01:00 +17°C° 0 mm 0 mps 710 mmHg 72%
    02:00 +17°C° 0 mm 0 mps 709 mmHg 70%
    03:00 +17°C° 0 mm 0 mps 709 mmHg 67%
    04:00 +18°C° 0 mm 1 mps 709 mmHg 68%
    05:00 +18°C° 0 mm 1 mps 709 mmHg 68%
    06:00 +18°C° 0 mm 1 mps 709 mmHg 68%
    07:00 +21°C° 0 mm 1 mps 710 mmHg 61%
    08:00 +24°C° 0 mm 1 mps 710 mmHg 54%
    09:00 +27°C° 0 mm 1 mps 711 mmHg 47%
    10:00 +30°C° 0 mm 1 mps 711 mmHg 39%
    11:00 +33°C° 0 mm 1 mps 711 mmHg 30%
    12:00 +37°C° 0 mm 1 mps 711 mmHg 21%
    13:00 +37°C° 0 mm 1 mps 711 mmHg 21%
    14:00 +37°C° 0 mm 1 mps 710 mmHg 21%
    15:00 +39°C° 0 mm 2 mps 709 mmHg 21%
    16:00 +36°C° 0 mm 2 mps 709 mmHg 32%
    17:00 +32°C° 0 mm 2 mps 709 mmHg 42%
    18:00 +29°C° 0 mm 2 mps 708 mmHg 53%
    19:00 +27°C° 0 mm 2 mps 709 mmHg 61%
    20:00 +25°C° 0 mm 1 mps 709 mmHg 69%
    21:00 +23°C° 0 mm 1 mps 709 mmHg 77%
    22:00 +22°C° 0 mm 1 mps 709 mmHg 78%
    23:00 +22°C° 0 mm 1 mps 709 mmHg 79%
    Show more